Tracking 29892 objects as of 21-Nov-2024
HD Live streaming from Space Station
objects crossing your sky now

STARLINK-6112

Track STARLINK-6112 now!
10-day predictions
STARLINK-6112 is classified as:


NORAD ID: 57136
Int'l Code: 2023-090AM
Perigee: 565.4 km
Apogee: 567.1 km
Inclination: 43.0 °
Period: 95.8 minutes
Semi major axis: 6937 km
RCS: Unknown
Launch date: June 23, 2023
Source: United States (US)
Launch site: AIR FORCE EASTERN TEST RANGE (AFETR)
Your satellite tracking list
Your tracking list is empty




NASA's NSSDC Master Catalog

Two Line Element Set (TLE):
1 57136U 23090AM  24325.33968386  .00000696  00000-0  66600-4 0  9991
2 57136  43.0040 319.5618 0001213 259.7324 100.3381 15.02535055 79033
Source of the keplerian elements: AFSPC